User: anonymous   Login
Location: Unspecified
(41.1637°N, 0.0000°E)
Time: 18:56:06
(UTC+00:00)
Language:

RS-15 - Orbit

View from above orbital plane
View from above orbital plane
View from above satellite
View from above satellite

Ground track
Ground track

The orbit data is extracted from the following two-line orbital elements,

1 23439U 94085A   19229.02737993 -.00000059  00000-0 -46593-3 0  9996
2 23439  64.8192  20.1689 0146002 101.7241 260.0105 11.27568709 14744
Epoch (UTC): 17 August 2019 00:39:25
Eccentricity: 0.0146002
inclination: 64.8192°
perigee height: 1900 km
apogee height: 2145 km
right ascension of ascending node: 20.1689°
argument of perigee: 101.7241°
revolutions per day: 11.27568709
mean anomaly at epoch: 260.0105°
orbit number at epoch: 1474

The dashed part of the orbit path shows where the satellite is in the earth's shadow,  

DLR